Погода в Ице

Погода в Ице : погода сейчас, прогноз погоды и архив. Всё, что Вы хотите узнать о погоде в Ице!

Хотите узнать прогноз погоды в Ице? Тогда Вам сюда: Погода в Ице

Поиск расширенной информации на нашем сайте:

Другие новости

Новости СМИ2

Главная страница сайта

Новости сайта

03.07.2017

Напоминаем, что на нашем специализированном сайте Метеоцентр.Азия вы можете получить высокодетализированные автоматические прогнозы погоды по пунктам России, СНГ и мира в авиационном формате (включающие направление и скорость ветра, видимость, явления погоды, количество и форму облачности, нижнюю и верхнюю границу облачности).


Погода в Ице - сегодня

Время (UTC), дата Ветер
(°,м/с) 
Видим.   Явления Облачность Т
(°С)
Тd
(°С)
f(%) Тe
(°С)
Pmin
(гПа)
dP
(гПа)
Po
(мм)
O2
(г/м3)
Тmin Tmax R s Состояние
почвы
18 14.11.17 150 (ЮВ) 10 км  слаб. ливневой дождь  10/10 300 м кучево-дожд. 
[Cb cap]
-0.8 -0.8 100 -3  1011.9  0.5  758  307           
00 15.11.17 110 (В) 20000 м  {ливн. осадки}  8/4 300 м верхняя 
[St|Ci fib]
-0.9 -3.9 80 -3  1007.8  -3.2  755  306  -2.2         
06 15.11.17 120 (ЮВ) 8-11{12}  10 км  слаб. ливневой дождь  10/10 300 м кучево-дожд. 
[Cb cap]
+1.9 +1.9 100 -2  998.7  -4.3  749  299           
12 15.11.17 170 (Ю) 6{13}  10 км  слаб. ливневой дождь со снегом  10/10 300 м кучево-дожд. 
[Cb cap]
+0.8 +0.8 100 -3  1001.4  3.2  751  301           
18 15.11.17 210 (ЮЗ) 14-19{22}  20000 м  {ливн. осадки}  10/10 300 м 
[St]
+1.9 -1.7 77 -3  1005.5  754  302           
00 16.11.17 230 (ЮЗ) 17  20000 м  {ливн. осадки}  9/9 300 м 
[St]
+0.6 +0.6 100 -6  1011.6  3.8  758  305           
06 16.11.17 230 (ЮЗ) 8-11{18}  20000 м    10/10 300 м 
[St]
+0.5 -1.8 85 -4  1018.6  763  307           
12 16.11.17 130 (ЮВ) 20000 м  {ливн. осадки}  10/10 300 м 
[St]
-1.5 -3.5 86 -4  1019.2  -1.1  764  310           
18 16.11.17 050 (СВ) 20000 м    9/6 300 м верхняя 
[St|Ci fib]
-1.9 -4.1 85 -5  1012.7  -4.2  759  308           
00 17.11.17 040 (СВ) 5{11}  20000 м  {ливн. осадки}  10/10 300 м 
[St]
-1.9 -1.9 100 -5  1004.6  -4.2  753  306  -2.5         
06 17.11.17 040 (СВ) 10 км  слаб. ливневой снег  10/10 300 м кучево-дожд. 
[Cb cap]
-1.4 -1.4 100 -2  999.4  -1  749  304           
12 17.11.17 310 (СЗ) 13-16{16}  10 км  слаб. ливневой дождь  10/10 300 м кучево-дожд. 
[Cb cap]
+1.7 +1.7 100 -3  1000.9  750  300           
18 17.11.17 270 (З) 12-14{17}  20000 м  в посл. час ливневой снег  10/10 300 м 
[St]
+0.5 +0.5 100 -5  1007.4  2.9  755  304           
00 18.11.17 250 (З) 8-11{15}  20000 м  {ливн. осадки}  9/9 300 м 
[St]
-0.1 -4.1 74 -4  1012.9  2.5  759  306  -1         
06 18.11.17 220 (ЮЗ) 5{12}  20000 м    10/10 300 м 
[St]
-0.5 -6.4 64 -4  1016.2  1.8  762  308           
12 18.11.17 130 (ЮВ) 20000 м  {ливн. осадки}  8/6 300 м верхняя 
[St|Ci fib]
-3.2 -4.9 88 -7  1017.8  0.5  763  312           
18 18.11.17 130 (ЮВ) 6{11}  10 км  слаб. ливневой снег  10/10 300 м кучево-дожд. 
[Cb cap]
-0.9 -5.3 72 -5  1014.6  -1.8  760  308           
00 19.11.17 160 (Ю) 12-18{27}  20000 м  {ливн. осадки}  10/10 300 м 
[St]
+2.5 -0.8 79 -2  1005.9  -3.6  754  301           
06 19.11.17 150 (ЮВ) 8-13{15}  10 км  слаб. ливневой дождь  10/10 300 м кучево-дожд. 
[Cb cap]
+3.2 +3.2 100 1000.4  -1.1  750  298           
12 19.11.17 150 (ЮВ) 6{20}  10 км  слаб. ливневой дождь  10/10 300 м кучево-дожд. 
[Cb cap]
+4.4 +0.4 75 +2  991  -4.4  743  294           
18 19.11.17 210 (ЮЗ) 16-20{22}  10 км  слаб. ливневой дождь  10/10 300 м кучево-дожд. 
[Cb cap]
+2.8 +2.8 100 -3  988.6  2.1  741  295           
00 20.11.17 240 (ЮЗ) 16-20{24}  10 км  слаб. крупа{ливн. осадки}  10/10 300 м кучево-дожд. 
[Cb cap]
-0.2 -0.8 96 -7  999.2  4.8  749  302  -0.2         
06 20.11.17 250 (З) 11-16{19}  20000 м  в посл. час крупа{ливн. осадки}  10/10 300 м 
[St]
-0.9 -4.2 78 -6  1003  1.9  752  304           
12 20.11.17 250 (З) 11-13{15}  20000 м    9/6 300 м верхняя 
[St|Ci fib]
-1.3 -6.4 68 -7  1005.4  0.9  754  306           
18 20.11.17 270 (З) 5{11}  20000 м  {ливн. осадки}  10/10 300 м 
[St]
-3.2 -5.1 87 -7  1006.2  0.7  754  308           
Время (UTC), дата Ветер
(°,м/с) 
Видим.   Явления Облачность Т
(°С)
Тd
(°С)
f(%) Тe
(°С)
Pmin
(гПа)
dP
(гПа)
Po
(мм)
O2
(г/м3)
Тmin Tmax R s Состояние
почвы

Для получения пояснительной информации подведите курсор к названию столбца.

ПОГОДА в Ице - архив

Всё, что Вы хотите узнать о погоде в Ице - удобно и подробно!

Выберите нужную дату (начиная с 1 января 2015* года) и нажмите кнопку "Найти".
Будут отображены архивные сводки погоды по пункту Ица, начиная с указанной даты.


Отображать данные в формате CSV (для использования в таблицах Excel)


Внимание! Наш архив погоды предназначен исключительно для личного некоммерческого использования в познавательных целях. Если Вам необходимы официальные справки о состоянии погоды (для производственных, юридических, коммерческих и т.п. целей), обращайтесь в органы Росгидромета.

*Примечание: данная дата относится к архиву по метеостанциям СССР (Россия, СНГ, Балтия).
Архив по метеостанциям Зарубежной Европы и Азии (кроме Китая) хранится 10 дней, по другим регионам земного шара (Китай, Африка, Америка, Австралия, Океания) - 1 день.

Ица - район местоположения метеостанции


Название, широта, долгота, высота метеостанции:
Ица 55.6°ш. 155.6°д. 6 м над ур. моря [Российская Федерация]

Дополнительная информация

В oтличие oт бoльшинства пoгoдных сайтoв мы публикуем пoдрoбную метеoинфoрмацию в детальнoм прoфессиoнальнoм фoрмате.

Характеристики температуры и влажнoсти вoздуха измеряются на высoте 2 м в тени вдали oт зданий и деревьев.
Скoрoсть ветра измеряется на высoте 10 м (на урoвне рoста челoвека скoрoсть ветра ниже в 1.5-2 раза). Если метеoстанция нахoдится в гoрoде или в лесу, тo скoрoсть ветра занижена на 2-4 м/с пo сравнению с oткрытым местoм. Скoрoсть ветра над акватoриями крупных рек и oзёр, а также на вершинах хoлмoв на 2-5 м/с выше, чем в oбычных услoвиях.
Атмoсфернoе давление в разных тoчках местнoсти мoжет значительнo oтличаться oт давления на метеoстанции, в зависимoсти oт услoвий рельефа (при пoдъёме на 10 м давление пoнижается примернo на 1 мм рт.ст.).